QIANFAN-74

Satellite information

Favourite Embed

Satellite Type and Status

PAYLOADIN ORBIT

Key statistics

Satellite QIANFAN-74 at a glance.

Uptime

225

Days in orbit

Revolutions

≈ 13.5

Per day

Orbit

LEO

Low Earth Orbit

Inclination

89.0

Latest

Satellite identification and parameters

Extended collection of information and parameters for QIANFAN-74.

Object identification

Identified? True

Debris? False

Object name: QIANFAN-74

International designator: 2025-046B

Object number (NORAD): 63160

Object ID (CCSDS): 63160

Country: PEOPLES REPUBLIC OF CHINA (PRC)

Current information (Y/N): Y

RCS size: LARGE

Orbital parameters

Period: 106.59 minutes

Inclination: 88.9783 deg

SMA: 7446.817 km

Apoapsis: 1070.27 km

Periapsis: 1067.093 km

RAAN: 325.281 deg

Eccentricy: 0.0002133

Argument of periapsis: 97.2349 deg

Mean anomaly: 262.9045 deg

Mean motion: 13.50973265 rev/day

Mean motion (dot): 0.00000149 rev/day2

B* drag term: 0.00021299 1/REarth

Two-line elements (TLE)

Creation date: Oct. 22, 2025, 12:16 a.m.

Reference frame: TEME

Reference center: EARTH

Epoch: Oct. 21, 2025, 9:24 p.m. UTC

TLE line 0: 0 QIANFAN-74

TLE line 1: 1 63160U 25046B 25294.89167002 .00000149 00000-0 21299-3 0 9998

TLE line 2: 2 63160 88.9783 325.2810 0002133 97.2349 262.9045 13.50973265 40479

Live tracking on map

Real-time ground track for satellite QIANFAN-74.

In-orbit conjunctions

There are no conjunctions computed for QIANFAN-74, at the moment. Check back to stay up to date, as we update our databases every day.

Go to all conjunctions

Associated space launch

18 Low Earth Orbit communication satellites with Ku, Q and V band payloads for the G60 constellation operated by Shanghai Spacecom Satellite Technology (SSST) with funding backed by the Shanghai local government. Initial constellation will consist of 1296 satellites by 2027 with long term plans to expand it to 12000 satellites. First launch from the Wenchang Commercial Space Launch Site's LC-1.

QIANFAN-74 was lifted into orbit during the mission ‘Long March 8 | G60 Polar Group 05’, on board a Long March 8 space rocket.

The launch took place on March 11, 2025, 4:38 p.m. from Commercial LC-1.

For more information about the launch, click the button.

Launch to space Long March 8 | G60 Polar Group 05
Long March 8 | G60 Polar Group 05

Agency: N/A

Status: Launch Successful

Launch date: March 11, 2025, 4:38 p.m. UTC

Rocket: Long March 8

Launch pad: Commercial LC-1

Location: Wenchang Space Launch Site, People's Republic of China

...

Latest news about this satellite

News about space launch
Long March 8 launches Thousand Sails satellites from commercial spaceport

HELSINKI — A new group of 18 satellites entered orbit Tuesday for the Thousand Sails constellation with the first launch from a new commercial launch pad. A Long March 8 […] The post Long March 8 launches Thousand Sails satellites from commercial spacepo...

News about space launch
Launch Roundup: SpaceX, Rocket Lab, and Firefly set to launch amid busy launch manifest

This week, a busy launch manifest will see SpaceX launch the Crew-10 and Starlink Group… The post Launch Roundup: SpaceX, Rocket Lab, and Firefly set to launch amid busy launch manifest appeared first on NASASpaceFlight.com.


Newsletter sign-up

Weekly statistics, charts and insights to help you stay on top of the space industry.